This is the latest recevied weather packets stored in our database for station/object N8SHA. If no packets are shown the sender has not sent any weather packets the latest 10 day(s).
| Time | Temp. | Humidity | Pressure | Rain* | Wind** | Luminosity | Snow |
|---|---|---|---|---|---|---|---|
| 1777919611 | 25° C | 30% | 1000.8 hPa | 0 mm | - | 788 W/m² | - |
| 1777919308 | 25° C | 29% | 1001.1 hPa | 0 mm | - | 817 W/m² | - |
| 1777919006 | 25° C | 30% | 1001.1 hPa | 0 mm | - | 851 W/m² | - |
| 1777918702 | 25° C | 31% | 1001.2 hPa | 0 mm | - | 735 W/m² | - |
| 1777918400 | 25° C | 28% | 1001 hPa | 0 mm | - | 815 W/m² | - |
| 1777918099 | 24.44° C | 32% | 1001 hPa | 0 mm | - | 820 W/m² | - |
| 1777917797 | 24.44° C | 29% | 1001.2 hPa | 0 mm | - | 840 W/m² | - |
| 1777917495 | 25° C | 29% | 1001.3 hPa | 0 mm | - | 865 W/m² | - |
| 1777917191 | 23.89° C | 31% | 1001.5 hPa | 0 mm | - | 812 W/m² | - |
| 1777916890 | 24.44° C | 30% | 1001.3 hPa | 0 mm | - | 729 W/m² | - |
| 1777916586 | 24.44° C | 31% | 1001.4 hPa | 0 mm | - | 875 W/m² | - |
| 1777916283 | 24.44° C | 29% | 1001.6 hPa | 0 mm | - | 869 W/m² | - |
| 1777915980 | 25° C | 31% | 1001.5 hPa | 0 mm | - | 813 W/m² | - |
| 1777915677 | 24.44° C | 33% | 1001.9 hPa | 0 mm | - | 845 W/m² | - |
| 1777915374 | 23.89° C | 32% | 1002 hPa | 0 mm | - | 867 W/m² | - |
| 1777915069 | 24.44° C | 33% | 1002 hPa | 0 mm | - | 860 W/m² | - |
| 1777914767 | 24.44° C | 34% | 1001.8 hPa | 0 mm | - | 853 W/m² | - |
| 1777914463 | 23.89° C | 33% | 1001.9 hPa | 0 mm | - | 850 W/m² | - |
| 1777914161 | 23.89° C | 34% | 1002.2 hPa | 0 mm | - | 844 W/m² | - |
| 1777913857 | 23.33° C | 35% | 1002.3 hPa | 0 mm | - | 847 W/m² | - |
| 1777913553 | 23.89° C | 34% | 1002.3 hPa | 0 mm | - | 845 W/m² | - |
| 1777913250 | 23.33° C | 35% | 1002.2 hPa | 0 mm | - | 842 W/m² | - |
| 1777912947 | 23.33° C | 35% | 1002.6 hPa | 0 mm | - | 843 W/m² | - |
| 1777912643 | 23.33° C | 35% | 1002.5 hPa | 0 mm | - | 831 W/m² | - |
| 1777912339 | 23.33° C | 36% | 1002.6 hPa | 0 mm | - | 828 W/m² | - |
* Rain latest hour (hover to see other rain measurements)
** Current wind speed in m/s (hover to see current wind gust speed)